Weather Roundup
Issued by NWS Corpus Christi, TX

Home | Current Version | Previous Version | Text Only | Print | Product List | Glossary On
Versions: 1 2 3 4 5 6 7 8 9 10 11 12 13 14 15 16 17 18 19 20 21 22 23 24 25 26 27 28 29 30 31 32 33 34 35 36 37 38 39 40 41 42 43 44 45 46 47 48 49 50
000
ASUS44 KCRP 271010
HRRCRP

SOUTH TEXAS REGIONAL WEATHER ROUNDUP
NATIONAL WEATHER SERVICE CORPUS CHRISTI TX
400 AM CST SAT DEC 27 2014


TXZ229>244-271100-
...CORPUS CHRISTI AREA OBSERVATIONS...

CITY           SKY/WX    TMP DP  RH WIND       PRES   REMARKS
CORPUS CHRISTI MOCLDY    68  66  93 S15       29.91S FOG
NAS CORPUS CHR MOCLDY    69  68  96 SE15      29.92S
ROCKPORT       MOCLDY    70  68  93 SE12      29.91F FOG
KINGSVILLE NAS CLOUDY    68  68 100 SE9       29.90S
ALICE          CLOUDY    68  66  93 S9        29.89S
FALFURRIAS     CLOUDY    69  65  89 SE12      29.89S
$$

...VICTORIA AREA OBSERVATIONS...

CITY           SKY/WX    TMP DP  RH WIND       PRES   REMARKS
VICTORIA       CLOUDY    70  69  97 SE10      29.93S FOG
BEEVILLE       CLOUDY    68  68  99 S17G24    29.90S
PLEASANTON     CLOUDY    65  63  94 SE5       29.91S
SAN ANTONIO    DRIZZLE   64  62  93 CALM      29.93R FOG
$$

...LAREDO AREA OBSERVATIONS...

CITY           SKY/WX    TMP DP  RH WIND       PRES   REMARKS
LAREDO         NOT AVBL
DEL RIO        CLOUDY    56  41  57 NW12      29.96R
MCALLEN        CLOUDY    69  66  90 SE14      29.88R
HEBBRONVILLE   CLOUDY    62  61  97 SE13      29.88F
$$

...OTHER TEXAS OBSERVATIONS...

CITY           SKY/WX    TMP DP  RH WIND       PRES   REMARKS
BROWNSVILLE    CLOUDY    70  67  90 SE10      29.90S
HOUSTON        CLOUDY    69  67  93 S6        29.98S
COL. STATION   CLOUDY    66  65  96 SE8       29.96S
AUSTIN         CLOUDY    61  61 100 NE5       29.94R FOG
WACO           CLOUDY    62  61  96 CALM      29.98S FOG
FORT WORTH     CLOUDY    44  39  82 N23       30.06R
WICHITA FALLS  CLOUDY    38  31  76 N17       30.18R WCI  28
LUBBOCK        LGT SNOW  30  28  92 N10       30.15R WCI  21
EL PASO        CLOUDY    36  32  85 S5        30.08S
$$

...MARINE OBSERVATIONS...

STATION/POSITION TIME  SKY/WX   TEMP    WIND        PRES    VSBY  WAVE   SWELL
                                AIR SEA DIR/SP/G                  HT/PER HT/PER
                 (UTC)          (F)     (DEG/KT/KT) (MB)    (MI)  (FT/S) (FT/S)
PORT ARANSAS     1000            67 63  140/ 15/ 16 1013.4F
BUOY 90 E PORT A 1000            73 72  140/ 12/ 14 1015.0R         5/ 8   5/ 8
BUOY 45 SE BAFFI 1000            72 72  170/ 10/ 12 1013.5R         6/ 8   5/ 8
BUOY 200 E PT IS 1000            74 74  150/ 12/ 16 1015.3F         4/ 6   2/ 7
BUOY 15 E GALVES 1000            64 61  140/  8/ 10 1015.6R         4/ 6   3/ 6
$$



USA.gov is the U.S. government's official web portal to all federal, state and local government web resources and services.